Home > Weather > Chongqing > Past weeks

Flag for China Weather for the Past 2 Weeks in Chongqing, Chongqing Municipality, China

Now
70 °F

Sprinkles. Passing clouds.


Feels Like: 70 °F
Forecast: 66 / 80 °F
Wind: 13 mph from Southwest

Location: Chongqing Airport

Current Time: May 7, 2016 at 1:36:35 AM

Latest Report: May 7, 2016 at 1:00 AM


Visibility: N/A

Pressure: 29.74 "Hg

Humidity: 88%

Dew Point: 66 °F

Location of ChongqingLocation

Historic Weather in Chongqing — Graph

°F

Chongqing Temperature Yesterday

Maximum temperature yesterday: 91 °F (at 3:00 PM)
Minimum temperature yesterday: 68 °F (at 10:00 PM)
Average temperature yesterday: 80 °F

High & Low Weather Summary for the Past Weeks

 TemperatureHumidityPressure
High93 °F (May 5, 4:00 PM)94% (Apr 22, 9:00 AM)30.07 "Hg (Apr 22, 9:00 AM)
Low59 °F (Apr 23, 5:00 AM)36% (May 5, 4:00 PM)29.53 "Hg (May 4, 4:00 PM)
Average71 °F73%29.82 "Hg
* Reported Midnight between Apr 21 and Apr 22 — Midnight between May 6 and May 7, Chongqing, Weather by CustomWeather, © 2016

Note: Actual official high and low records may vary slightly from our data, if they occured in-between our weather recording intervals... More about our weather records

Advertising

Chongqing Weather History for the Previous 24 Hours

Scroll right to see more
 ConditionsComfort  
Time TempWeatherWind HumidityBarometerVisibility
12:00 AM
Sat, May 7
70 °FThunderstorms. Passing clouds.10 mph88%29.65 "HgN/A
11:00 PM
Fri, May 6
68 °FThunderstorms. Passing clouds.10 mph94%29.71 "HgN/A
10:00 PM68 °FThunderstorms. Passing clouds.8 mph88%29.71 "HgN/A
9:00 PM70 °FThunderstorms. Passing clouds.10 mph78%29.65 "HgN/A
8:00 PM79 °FThunderstorms. Passing clouds.13 mph65%29.56 "Hg5 mi
7:00 PM75 °FPassing clouds.10 mph74%29.56 "HgN/A
6:00 PM79 °FSunny.10 mph70%29.59 "Hg10 mi
5:00 PM82 °FPassing clouds.15 mph62%29.56 "HgN/A
4:00 PM88 °FPassing clouds.15 mph52%29.59 "HgN/A
3:00 PM91 °FPassing clouds.10 mph46%29.59 "HgN/A
2:00 PM88 °FPassing clouds.10 mph52%29.65 "HgN/A
1:00 PM88 °FClear.13 mph52%29.68 "Hg6 mi
12:00 PM86 °FSunny.13 mph55%29.71 "Hg10 mi
11:00 AM82 °FSunny.13 mph62%29.71 "Hg10 mi
10:00 AM81 °FSunny.10 mph62%29.71 "Hg10 mi
9:00 AM79 °FSunny.8 mph70%29.68 "Hg10 mi
8:00 AM79 °FSunny.8 mph65%29.65 "Hg10 mi
7:00 AM77 °FSunny.8 mph74%29.62 "Hg10 mi
6:00 AM77 °FClear.6 mph69%29.62 "Hg10 mi
5:00 AM77 °FClear.6 mph69%29.62 "Hg10 mi
4:00 AM79 °FClear.6 mph65%29.62 "Hg10 mi
3:00 AM79 °FClear.6 mph65%29.62 "Hg10 mi
2:00 AM81 °FClear.6 mph62%29.65 "Hg10 mi
1:00 AM81 °FClear.6 mph62%29.65 "Hg10 mi
Weather by CustomWeather, © 2016

See weather overviewHow to use our weather pages